Home   Weather   Farmington   Past weeks

Flag for USA Past Weather in Farmington, New Mexico, USA — Yesterday and Last 2 Weeks

Now
18 °F

Clear.


Feels Like: 11 °F
Forecast: 13 / 42 °F
Wind: 5 mph from Northeast

Location: Four Corners Regional Airport

Current Time: Jan 23, 2018 at 10:53:52 pm

Latest Report: Jan 23, 2018 at 9:53 pm


Visibility: 10 mi

Pressure: 30.54 "Hg (24.80 "Hg at 1617m altitude)

Humidity: 74%

Dew Point: 11 °F

Location of FarmingtonLocation

Past Weather in Farmington — Graph

°F

Farmington Temperature Yesterday

Maximum temperature yesterday: 36 °F (at 2:53 pm)
Minimum temperature yesterday: 13 °F (at 11:53 pm)
Average temperature yesterday: 24 °F

High & Low Weather Summary for the Past Weeks

 TemperatureHumidityPressure
High62 °F (Jan 9, 2:53 pm)100% (Jan 10, 7:33 pm)30.55 "Hg (Jan 10, 7:33 pm)
Low8 °F (Jan 23, 4:53 am)20% (Jan 19, 3:53 pm)29.65 "Hg (Jan 10, 5:53 am)
Average32 °F67%30.20 "Hg
* Reported Jan 8 8:53 pm — Jan 23 8:53 pm, Farmington. Weather by CustomWeather, © 2018

Note: Actual official high and low records may vary slightly from our data, if they occured in-between our weather recording intervals... More about our weather records

Advertising

Farmington Weather History for the Previous 24 Hours

Scroll right to see more
 ConditionsComfort  
Time TempWeatherWind HumidityBarometerVisibility
8:53 pm
Tue, Jan 23
22 °FClear.3 mph68%30.51 "Hg10 mi
7:53 pm26 °FClear.6 mph60%30.51 "Hg10 mi
6:53 pm27 °FClear.No wind55%30.50 "Hg10 mi
5:53 pm34 °FClear.3 mph42%30.43 "Hg10 mi
4:53 pm36 °FSunny.No wind40%30.42 "Hg10 mi
3:53 pm37 °FSunny.No wind41%30.39 "Hg10 mi
2:53 pm36 °FSunny.No wind40%30.39 "Hg10 mi
1:53 pm35 °FSunny.3 mph42%30.40 "Hg10 mi
12:53 pm33 °FSunny.5 mph43%30.41 "Hg10 mi
11:53 am28 °FSunny.No wind56%30.47 "Hg10 mi
10:53 am25 °FSunny.5 mph60%30.51 "Hg10 mi
9:53 am20 °FSunny.7 mph71%30.50 "Hg10 mi
8:53 am16 °FSunny.8 mph80%30.48 "Hg10 mi
7:53 am8 °FSunny.3 mph83%30.48 "Hg10 mi
6:53 am9 °FClear.6 mph88%30.44 "Hg10 mi
5:53 am11 °FClear.7 mph84%30.42 "Hg10 mi
4:53 am8 °FClear.5 mph91%30.41 "Hg10 mi
3:53 am11 °FClear.7 mph88%30.39 "Hg10 mi
2:53 am10 °FClear.5 mph88%30.40 "Hg10 mi
1:53 am12 °FClear.6 mph88%30.39 "Hg10 mi
12:53 am14 °FClear.5 mph87%30.39 "Hg10 mi
11:53 pm
Mon, Jan 22
13 °FClear.5 mph84%30.40 "Hg10 mi
10:53 pm15 °FClear.6 mph83%30.40 "Hg10 mi
Weather by CustomWeather, © 2018

See weather overview